カタログに戻る

STARLINK-31685

運用中通信VLEO
NORAD 59578·PAYLOAD·🇺🇸 United States

打ち上げ Apr 23, 2024 から Cape Canaveral Space Force Station

Loading…

次のパス (今後24時間)

TLE

最新Source: CelesTrak SupGP

元期: Sep 15, 2026, 03:30 UTC

1 59578C 24076Q   26258.14631944  .00017653  00000+0  63952-3 0  2585
2 59578  43.0017  18.6841 0001480 272.6549  19.8050 15.27563107    18

AllMySatでSTARLINK-31685をリアルタイム追跡

Download on the App Store